[[{"header":{"parameterUnit":"m.s-1","parameterCategory":1,"la1":30.2991,"la2":30.254,"lo1":-89.0895,"lo2":-89.0444,"dy":0.0017,"dx":0.0017,"nx":28,"ny":28,"refTime":"2024-11-25T09:00:00:Z","depth":0,"parameterNumber":2,"parameterNumberName":"U-component_of_WINDS"},"data":[0,0,0,0,0,0,0,0,0,0,0,0,0,0,0,0,0,0,0,0,0,0,0,0,0,0,0,0,0,0,0,0,0,0,0,0,0,0,0,0,0,0,0,0,0,0,0,0,0,0,0,0,0,0,0,0,0,0,1.6367,1.6367,0,1.6408,1.6408,1.6408,1.6404,1.6403,1.6403,1.6402,1.6443,1.6445,1.6446,0,0,0,0,0,0,0,0,0,0,0,0,0,1.6285,1.6287,1.6367,1.6367,1.6368,1.6407,1.6408,1.6409,1.6404,1.6403,1.6403,1.6402,1.6442,1.6444,1.6446,0,0,0,0,0,0,0,0,0,0,0,0,0,1.6323,1.6287,1.6367,1.6371,1.6371,1.6407,1.6408,1.6409,1.6404,1.6403,1.6402,1.6401,1.6442,1.6444,1.6447,1.6482,0,0,1.6454,1.6455,0,0,0,0,0,0,0,0,1.632,1.6326,1.6369,1.637,1.6371,1.64,1.6394,1.6433,1.6404,1.6392,1.6402,1.6401,1.6429,1.6433,1.6442,1.6483,1.6485,1.6455,1.6456,1.6457,1.6458,0,0,0,0,0,0,0,1.6318,1.6324,1.6383,1.637,1.6371,1.637,1.6374,1.6401,1.6415,1.6393,1.6393,1.6397,1.643,1.644,1.6443,1.6486,1.6455,1.6457,1.6458,1.6459,1.6557,1.6559,0,0,0,0,0,0,1.6314,1.6322,1.6382,1.6384,1.6343,1.6372,1.6377,1.6392,1.6415,1.6418,1.6398,1.6397,1.6436,1.644,1.6445,1.6487,1.6457,1.646,1.6461,1.6556,1.6558,1.6559,0,0,0,0,0,0,1.6313,1.632,1.638,1.6353,1.636,1.6375,1.6391,1.6393,1.6403,1.6419,1.6422,1.6406,1.6436,1.6441,1.6472,1.6488,1.6461,1.6463,1.6555,1.6557,1.6558,1.6572,0,0,0,0,0,0,1.631,1.6319,1.6333,1.6353,1.6362,1.6407,1.6392,1.6394,1.6408,1.6407,1.6427,1.643,1.6435,1.6469,1.6475,1.6491,1.6465,1.6554,1.6556,1.6558,1.657,1.6574,1.6577,0,0,0,0,0,1.6307,1.6335,1.6333,1.6341,1.6379,1.6408,1.6413,1.6419,1.6409,1.6423,1.6433,1.6429,1.6486,1.6472,1.6479,1.6496,1.6553,1.6555,1.6558,1.6569,1.6573,1.6577,0,0,0,0,0,0,1.6315,1.6337,1.6336,1.6371,1.6388,1.6407,1.6424,1.6423,1.6443,1.6441,1.6447,1.6452,1.6483,1.6493,1.6477,1.6531,1.6518,1.6522,1.6524,1.6528,1.6532,1.6528,1.6467,0,0,0,0,0,1.6321,1.6343,1.6361,1.639,1.6399,1.641,1.6423,1.6426,1.6444,1.645,1.6463,1.648,1.6501,1.6516,1.6536,1.6572,1.6576,1.6587,1.6591,1.6593,1.6597,1.6616,1.6621,1.6567,1.6567,1.6567,0,0,1.6333,1.6348,1.6361,1.6392,1.6405,1.6428,1.6416,1.644,1.6457,1.6454,1.6484,1.6494,1.6514,1.6547,1.6562,1.6556,1.6613,1.6597,1.6599,1.66,1.6619,1.6624,1.6629,1.6569,1.6568,1.6568,0,0,1.6366,1.638,1.6406,1.6419,1.644,1.6448,1.6454,1.6474,1.648,1.6511,1.6509,1.6529,1.6566,1.658,1.6592,1.6631,1.6629,1.6638,1.6656,1.6675,1.6679,1.6683,1.6696,1.6701,1.6641,1.6641,1.6641,0,1.6378,1.6412,1.6419,1.6443,1.6457,1.6456,1.6482,1.6495,1.6521,1.653,1.6523,1.6569,1.6582,1.6619,1.6629,1.6639,1.6646,1.6635,1.6678,1.6682,1.6685,1.6698,1.6704,1.6642,1.6642,1.6642,1.6642,0,1.6426,1.645,1.6468,1.6494,1.6509,1.6534,1.6544,1.6559,1.6561,1.657,1.6601,1.6617,1.6641,1.665,1.6652,1.6687,1.6682,1.6676,1.6663,1.6691,1.6704,1.6709,1.6643,1.6643,1.6643,1.6643,0,0,1.6464,1.6494,1.6501,1.6512,1.6535,1.6553,1.6579,1.6602,1.6615,1.6633,1.6654,1.6686,1.6681,1.6694,1.6698,1.6715,1.6745,1.6707,1.6707,1.6713,1.6784,1.6788,1.6794,1.6744,1.6745,1.6745,1.6783,0,1.65,1.6544,1.6551,1.659,1.6612,1.6612,1.6634,1.665,1.6659,1.6679,1.6688,1.6711,1.6702,1.671,1.6727,1.6738,1.6759,1.6735,1.6763,1.6764,1.6757,1.6801,1.6805,1.6839,1.6788,1.6789,1.6789,0,1.6546,1.6566,1.6608,1.6628,1.6638,1.6657,1.668,1.6699,1.6717,1.6723,1.6738,1.674,1.6766,1.6752,1.6788,1.6771,1.6783,1.679,1.6792,1.6794,1.6778,1.6804,1.685,1.6855,1.6797,1.6796,1.6796,0,1.657,1.6607,1.6637,1.6647,1.6671,1.6685,1.6696,1.6714,1.6728,1.6748,1.6757,1.6779,1.6791,1.6809,1.6816,1.6805,1.6852,1.6838,1.6857,1.6856,1.6866,1.6865,1.6914,1.6874,1.6874,1.6874,1.6874,0,1.6608,1.6633,1.6647,1.6666,1.6694,1.6702,1.673,1.674,1.6756,1.6776,1.6778,1.6796,1.6806,1.6826,1.6833,1.6861,1.6867,1.6872,1.6873,1.6871,1.687,1.6879,1.6876,1.6876,1.6875,1.6875,1.6875,0,1.6638,1.6649,1.6681,1.6702,1.6708,1.6728,1.6746,1.6763,1.6772,1.6798,1.6804,1.6818,1.6842,1.6852,1.6882,1.6886,1.6919,1.6918,1.6912,1.6913,1.693,1.6928,1.6986,1.6994,1.6949,1.695,1.695,0,1.6661,1.6681,1.6704,1.6718,1.6729,1.6751,1.6766,1.6774,1.6789,1.6813,1.6827,1.6852,1.6871,1.691,1.6922,1.6945,1.6945,1.6964,1.6948,1.6946,1.6945,1.6943,1.6945,1.6966,1.6967,1.6967,1.6967,0,1.6701,1.6706,1.6726,1.675,1.6767,1.6785,1.6803,1.6815,1.6826,1.6843,1.6868,1.6883,1.6913,1.6937,1.6961,1.6972,1.6971,1.6972,1.6978,1.6976,1.6971,1.6974,1.692,1.6971,1.697,1.697,1.697,1.697,1.6728,1.6745,1.6765,1.6788,1.6803,1.682,1.6837,1.6849,1.687,1.6895,1.6899,1.6926,1.6945,1.6976,1.6988,1.7009,1.7004,1.7012,1.7014,1.7016,1.7017,1.6969,1.7014,1.7014,1.7013,1.7013,1.7013,0,1.6767,1.678,1.6802,1.6827,1.6846,1.6845,1.6865,1.688,1.6904,1.6921,1.6941,1.6969,1.6993,1.7008,1.7031,1.7045,1.7046,1.7051,1.705,1.7052,1.702,1.7013,1.705,1.705,1.705,1.705,1.705,1.705,1.679,1.6819,1.6827,1.6863,1.6876,1.6902,1.6914,1.6929,1.6944,1.6976,1.6995,1.7005,1.7022,1.7047,1.7068,1.7072,1.708,1.7086,1.709,1.7059,1.7055,1.7051,1.7044,1.7088,1.7088,1.712,1.7121,1.7121]},{"header":{"parameterUnit":"m.s-1","parameterCategory":1,"la1":30.2991,"la2":30.254,"lo1":-89.0895,"lo2":-89.0444,"dy":0.0017,"dx":0.0017,"nx":28,"ny":28,"refTime":"2024-11-25T09:00:00:Z","depth":0,"parameterNumber":3,"parameterNumberName":"V-component_of_WINDS"},"data":[0,0,0,0,0,0,0,0,0,0,0,0,0,0,0,0,0,0,0,0,0,0,0,0,0,0,0,0,0,0,0,0,0,0,0,0,0,0,0,0,0,0,0,0,0,0,0,0,0,0,0,0,0,0,0,0,0,0,3.0102,3.0103,0,3.0199,3.02,3.0201,3.0213,3.0212,3.0211,3.021,3.0306,3.031,3.0313,0,0,0,0,0,0,0,0,0,0,0,0,0,2.9923,2.9926,3.0102,3.0103,3.0104,3.0199,3.02,3.0202,3.0213,3.0212,3.0211,3.021,3.0305,3.0309,3.0313,0,0,0,0,0,0,0,0,0,0,0,0,0,3.0008,2.9927,3.0102,3.0121,3.0124,3.0199,3.02,3.0202,3.0213,3.0212,3.021,3.0209,3.0304,3.0309,3.0314,3.0375,0,0,3.033,3.0332,0,0,0,0,0,0,0,0,3.0003,3.0015,3.0117,3.012,3.0123,3.0192,3.0173,3.026,3.0214,3.0179,3.021,3.0208,3.0269,3.0277,3.0299,3.0379,3.0383,3.033,3.0333,3.0336,3.0337,0,0,0,0,0,0,0,2.9997,3.0011,3.014,3.0119,3.0122,3.0124,3.0135,3.0189,3.0231,3.0182,3.0183,3.0195,3.0271,3.0294,3.0301,3.0385,3.033,3.0335,3.0338,3.034,3.0521,3.0523,0,0,0,0,0,0,2.9988,3.0006,3.0137,3.0143,3.0059,3.0129,3.0141,3.0172,3.0231,3.0238,3.0196,3.0195,3.0285,3.0295,3.0304,3.0381,3.0336,3.034,3.0343,3.0519,3.0521,3.0523,0,0,0,0,0,0,2.9984,3.0,3.0133,3.0075,3.0092,3.0133,3.0168,3.0174,3.0197,3.0241,3.0248,3.0212,3.0285,3.0297,3.0358,3.0384,3.0343,3.0347,3.0517,3.052,3.0522,3.0533,0,0,0,0,0,0,2.9979,2.9998,3.0023,3.0075,3.0095,3.0186,3.017,3.0177,3.0207,3.0206,3.0258,3.0265,3.0284,3.035,3.0363,3.039,3.0352,3.0515,3.0519,3.0522,3.053,3.0535,3.0539,0,0,0,0,0,2.9973,3.002,3.0024,3.004,3.0126,3.0187,3.0198,3.0221,3.0209,3.0233,3.0261,3.0263,3.0379,3.0356,3.0371,3.04,3.0514,3.0518,3.0521,3.0528,3.0534,3.0539,0,0,0,0,0,0,2.9968,3.0028,3.0032,3.0098,3.0138,3.0189,3.022,3.0227,3.0269,3.0267,3.0292,3.0304,3.0364,3.0388,3.0361,3.0462,3.0445,3.0452,3.0445,3.0451,3.0456,3.0449,3.0356,0,0,0,0,0,2.9975,3.0021,3.007,3.0123,3.0143,3.0178,3.0206,3.022,3.0261,3.0278,3.031,3.035,3.0395,3.0424,3.0468,3.0533,3.0545,3.0561,3.0565,3.0569,3.0575,3.0612,3.062,3.0536,3.0536,3.0536,0,0,2.999,3.0028,3.0055,3.0124,3.0156,3.0202,3.0192,3.0241,3.0276,3.0285,3.0345,3.037,3.0415,3.0479,3.0508,3.0501,3.0601,3.0574,3.0577,3.0581,3.0617,3.0625,3.0632,3.0538,3.0538,3.0538,0,0,3.004,3.0073,3.0122,3.0155,3.0205,3.0228,3.024,3.029,3.0308,3.0369,3.0377,3.0418,3.0495,3.0527,3.0554,3.0617,3.0621,3.0631,3.0656,3.0692,3.0698,3.0705,3.0728,3.0736,3.0636,3.0636,3.0636,0,3.0051,3.0122,3.0146,3.0196,3.0226,3.0238,3.0288,3.0318,3.0379,3.0399,3.039,3.0488,3.0519,3.0591,3.0607,3.0627,3.0642,3.0625,3.0696,3.0702,3.0708,3.0731,3.074,3.0637,3.0637,3.0637,3.0637,0,3.0134,3.0183,3.0217,3.0278,3.0311,3.036,3.0392,3.0423,3.0434,3.0458,3.052,3.0558,3.061,3.0628,3.0639,3.0702,3.0696,3.0691,3.0674,3.0717,3.0739,3.0748,3.0639,3.0638,3.0638,3.0638,0,0,3.0185,3.0259,3.0271,3.0299,3.0355,3.0393,3.0442,3.0495,3.0522,3.0563,3.0606,3.0671,3.0668,3.0698,3.0712,3.0743,3.0793,3.0735,3.0736,3.0745,3.0866,3.0871,3.088,3.0795,3.0797,3.0798,3.0863,0,3.0242,3.0333,3.0357,3.0433,3.0479,3.0491,3.0535,3.0573,3.0597,3.0639,3.0664,3.0711,3.0702,3.072,3.0752,3.078,3.0818,3.0776,3.0835,3.0837,3.0825,3.0892,3.0897,3.0955,3.0871,3.0873,3.0874,0,3.0322,3.0367,3.0449,3.05,3.052,3.0559,3.061,3.065,3.0694,3.0709,3.0743,3.0755,3.0806,3.0786,3.0858,3.0829,3.0854,3.0872,3.0875,3.0882,3.0859,3.0902,3.0975,3.0984,3.0888,3.0886,3.0885,0,3.0352,3.0433,3.0493,3.0516,3.0577,3.0604,3.0631,3.0673,3.0704,3.0748,3.0768,3.0817,3.0843,3.0881,3.0905,3.0888,3.0975,3.0956,3.0989,3.0989,3.1008,3.1007,3.1087,3.1022,3.1022,3.1022,3.1022,0,3.0415,3.0465,3.0508,3.0545,3.0601,3.0627,3.0682,3.0708,3.0746,3.0788,3.08,3.0839,3.0868,3.0911,3.093,3.0987,3.0999,3.1012,3.1017,3.1012,3.1011,3.103,3.1027,3.1024,3.1024,3.1023,3.1023,0,3.0458,3.0489,3.0556,3.0608,3.0623,3.0662,3.0707,3.0743,3.0767,3.082,3.0834,3.0871,3.0922,3.095,3.1013,3.1026,3.1091,3.1093,3.1077,3.1079,3.1111,3.1108,3.1208,3.1222,3.1146,3.1147,3.1148,0,3.0497,3.0536,3.0593,3.0623,3.0651,3.0698,3.073,3.0757,3.0789,3.0843,3.0873,3.0925,3.0968,3.1049,3.1081,3.113,3.1134,3.1165,3.1141,3.1136,3.1136,3.1134,3.1139,3.117,3.117,3.1171,3.1172,0,3.0563,3.0576,3.0622,3.0674,3.0713,3.0754,3.0795,3.0819,3.0852,3.0888,3.0941,3.0975,3.1041,3.1093,3.1144,3.117,3.1177,3.1179,3.1189,3.1185,3.1175,3.1183,3.109,3.1177,3.1176,3.1176,3.1175,3.1175,3.0606,3.0642,3.0688,3.074,3.0774,3.0812,3.085,3.0879,3.0925,3.0981,3.0994,3.105,3.1094,3.1164,3.1192,3.1236,3.123,3.1244,3.1248,3.1252,3.1254,3.1167,3.1245,3.1245,3.1245,3.1245,3.1245,0,3.0673,3.0704,3.0751,3.081,3.085,3.0854,3.09,3.0933,3.0983,3.1024,3.1067,3.1128,3.1179,3.1216,3.1267,3.1295,3.13,3.1308,3.1307,3.1313,3.1256,3.1242,3.1304,3.1304,3.1304,3.1304,3.1304,3.1304,3.0713,3.0775,3.0794,3.0873,3.0903,3.096,3.0986,3.1021,3.1054,3.1123,3.1166,3.119,3.1229,3.1284,3.133,3.134,3.1359,3.1367,3.1377,3.1323,3.1317,3.1311,3.1298,3.137,3.1371,3.1431,3.1431,3.1431]}]]